Lid_Strength_Index
2 2 2 2 2 6 4 1 1 1 1 1 1 1 1 1 1 1 1 1 1 2 1 1 2 1 1 2 2 2 2 2 4 3 1 1 1 1 1 1 1 2 2
2 3 3 3 5 5 4 3 2 1 1 1 1 1 1 1 1 1 1 1 2 2 2 2 2 1 2 2 2 2 2 2 3 4 2 2 2 2 2 1 1 1 2
4 4 3 3 4 4 3 3 4 3 1 1 1 1 1 1 1 1 1 1 2 1 1 2 2 2 2 2 2 2 2 1 2 3 3 2 2 3 2 2 2 2 2
3 3 2 2 3 3 3 3 3 2 1 1 1 1 1 1 1 1 1 1 1 1 1 1 1 2 2 2 2 2 2 2 2 3 3 3 3 3 2 3 3 2 2
2 3 4 3 4 3 4 3 3 2 1 1 1 1 1 1 1 1 1 1 2 2 1 1 1 1 1 1 2 2 2 2 3 3 4 4 4 3 4 3 4 2 2
3 3 2 3 3 3 3 3 2 2 1 1 2 1 2 1 3 3 2 1 1 2 2 1 1 1 1 2 1 1 1 2 3 3 4 4 4 4 3 4 3 4 4
3 2 2 2 2 3 2 2 2 2 2 2 1 1 2 1 4 5 3 1 1 2 2 1 2 1 1 2 3 2 2 2 1 2 3 3 3 3 2 3 4 3 3
3 3 2 2 2 2 2 2 2 2 2 2 2 2 2 1 4 6 5 2 1 1 1 1 2 2 2 2 2 3 3 3 2 2 2 2 2 2 2 2 3 3 2
3 3 2 2 2 2 3 2 2 2 2 2 1 2 2 2 5 7 6 3 2 2 2 1 1 2 3 4 2 3 3 3 4 3 3 2 2 3 3 3 4 3 4
3 2 2 2 2 3 2 2 2 2 2 2 2 2 2 2 3 8 7 2 2 2 1 1 4 2 5 6 2 2 3 2 3 4 4 4 3 3 4 2 3 3 4
2 2 2 2 2 2 2 2 2 2 2 2 2 2 1 2 2 8 8 2 2 2 2 2 2 6 8 9 7 2 2 2 3 3 3 3 3 2 2 3 3 2 3
2 2 2 2 2 2 2 2 2 2 3 3 3 3 2 1 4 7 9 9 4 2 2 2 4 9 11 11 10 6 7 5 2 2 3 3 3 2 1 1 2 2 2
2 3 3 3 2 2 2 3 3 2 3 3 3 3 3 2 3 7 9 10 9 6 3 4 8 9 10 9 10 9 9 4 3 3 3 2 2 2 1 1 1 2 2
3 3 2 3 3 3 2 2 3 3 3 3 3 4 3 2 4 5 5 5 6 5 5 4 5 6 6 5 5 7 5 3 3 2 2 2 2 2 2 1 2 1 2
3 3 3 3 3 3 2 2 2 2 3 3 3 3 4 4 5 8 8 6 7 8 10 5 4 4 4 5 4 3 4 3 2 2 2 3 3 2 2 1 2 2 3
3 3 3 3 4 4 3 3 5 6 8 8 10 6 4 7 8 11 12 12 12 12 8 6 4 3 3 3 3 3 2 2 2 2 2 2 3 2 2 2 2 2 3
3 3 3 3 3 3 4 3 4 3 8 9 11 11 11 9 11 13 13 13 13 12 10 6 4 3 3 3 3 3 3 2 1 2 3 3 2 2 3 3 2 3 3
3 3 3 3 3 3 3 3 3 4 4 3 9 8 11 12 12 12 12 13 9 12 9 5 4 3 3 3 2 2 2 2 3 2 3 2 2 2 3 3 3 3 3
3 3 2 3 3 3 3 4 4 3 4 4 5 9 8 11 11 9 12 7 6 4 4 5 4 3 3 2 2 2 2 2 2 3 3 3 3 3 3 3 3 5 4
2 2 2 3 3 3 3 4 3 3 4 3 4 4 4 5 3 3 2 3 3 3 3 3 2 2 2 2 2 2 2 3 2 2 2 3 3 3 4 4 3 4 4
3 3 2 3 2 2 2 3 3 3 4 4 5 5 9 4 3 2 3 2 2 3 3 3 3 2 3 3 2 2 2 2 2 2 3 3 3 4 4 4 4 4 4
3 3 3 3 3 3 3 3 2 3 3 4 4 5 9 4 3 3 3 3 2 2 2 2 3 3 4 4 2 2 2 3 3 3 3 3 4 4 3 4 4 4 4
3 3 3 3 3 3 3 3 3 3 3 3 3 4 3 3 3 3 3 3 2 2 1 2 2 3 3 3 3 3 4 4 4 3 4 4 4 4 4 4 4 5 5
4 4 3 3 3 3 3 3 3 5 3 3 2 4 2 3 3 4 3 2 2 2 3 2 2 3 3 3 3 3 3 4 4 4 4 4 5 6 4 4 5 5 6
5 4 2 3 3 3 3 3 3 3 3 3 2 2 2 3 4 4 3 3 2 2 2 3 3 2 2 3 4 4 9 12 5 8 4 5 5 5 5 5 5 7 9
4 4 3 2 3 3 3 3 3 3 3 3 3 3 3 3 2 4 3 3 4 4 3 3 3 3 2 4 6 11 14 14 8 12 5 6 6 7 8 8 8 8 9